Location: Nag� el Ma?a??a
(24.0667°N, 32.8833°E)
Time: 21:14:46
(UTC+00:00)

FENGYUN 1C DEB - Visible Passes

Search period start: 27 June 2022 00:00
Search period end: 07 July 2022 00:00
Orbit: 774 x 821 km, 99.8° (Epoch: 26 June)

Date Brightness Start Highest point End Pass type
(mag) Time Alt. Az. Time Alt. Az. Time Alt. Az.
27 Jun ? 01:31:40 10° ENE 01:34:30 15° E 01:37:19 10° SE visible
29 Jun ? 02:14:37 10° NNE 02:19:36 45° ESE 02:24:36 10° S visible
30 Jun ? 01:48:16 10° NE 01:52:17 22° E 01:56:20 10° SSE visible
01 Jul ? 01:24:03 10° E 01:24:54 10° E 01:25:46 10° ESE visible
02 Jul ? 02:32:07 10° NNE 02:37:19 69° ESE 02:42:34 10° S visible
03 Jul ? 02:05:20 10° NE 02:10:03 34° E 02:14:46 10° SSE visible
04 Jul ? 01:39:25 10° ENE 01:42:42 17° E 01:45:59 10° SE visible
06 Jul ? 02:22:39 10° NNE 02:27:45 51° ESE 02:32:53 10° S visible
